CAPE
0 0 0 0 0 0 0 0 0 0 0 0 0 0 0 0 0 0 0 0 0 0 0 0 0 0 0 0 0 0 12 14 63 108 44 21 5 93 67 3 45 60 47 63
0 0 0 0 0 0 0 0 0 0 0 0 0 0 0 0 0 0 0 0 0 0 0 0 0 0 0 2 1 2 31 44 204 24 28 11 1 4 17 5 8 30 44 19
0 0 0 0 0 0 0 0 0 0 0 0 0 0 0 0 0 0 0 0 0 0 0 0 0 0 0 0 3 20 10 91 67 13 123 25 0 0 0 0 2 5 1 0
0 0 0 0 0 0 0 0 0 0 0 0 0 0 0 0 0 0 0 0 0 0 0 0 0 0 0 0 0 0 17 3 7 0 4 18 15 0 0 0 0 0 0 15
0 0 0 0 0 0 0 0 0 0 0 0 0 0 0 0 0 0 0 0 0 0 0 0 0 0 0 0 0 0 0 0 0 0 0 8 35 0 0 0 0 0 0 42
0 0 0 0 0 0 0 0 0 0 0 2 0 0 0 0 0 0 0 0 0 0 0 0 0 0 0 0 0 0 0 0 0 0 0 1 1 0 0 0 0 0 0 2
0 0 0 0 0 0 0 0 0 0 0 0 0 0 0 0 0 0 0 0 1 2 0 0 0 0 0 0 0 0 0 0 0 0 0 0 0 0 0 0 0 0 0 0
0 0 0 0 0 0 0 0 0 0 0 0 0 0 0 0 0 0 0 0 0 0 0 0 0 0 0 0 0 0 0 0 0 0 0 0 0 0 0 1 0 0 0 0
0 0 0 0 0 0 0 0 0 2 0 0 0 0 0 0 0 0 0 0 0 0 0 0 0 0 0 0 0 0 0 0 0 0 0 0 0 0 0 0 16 6 281 451
0 0 0 0 0 0 0 0 0 0 0 0 0 0 0 0 0 0 0 0 0 0 0 0 0 0 0 0 0 0 0 0 0 0 0 0 6 0 0 0 3 153 550 392
0 0 0 0 0 0 0 0 0 0 0 0 0 0 0 0 0 0 0 0 0 0 0 0 0 0 0 0 0 0 0 0 0 0 0 13 42 12 180 139 0 552 513 294
0 0 0 0 0 0 0 0 0 0 0 0 0 0 0 0 0 0 0 0 0 5 4 0 0 30 87 67 62 38 109 31 0 0 0 36 2 7 31 23 6 604 578 370
0 0 0 0 0 0 0 0 0 0 0 0 0 0 0 0 0 0 0 0 0 0 0 0 0 150 206 105 41 21 86 77 44 71 29 17 7 0 2 0 17 120 303 383
0 0 0 0 0 0 0 0 0 0 0 0 0 0 0 0 0 0 0 0 0 0 0 0 11 84 46 22 5 28 11 12 7 57 50 7 35 2 4 98 124 278 279 212
0 0 0 0 0 0 0 0 0 0 0 1 0 0 0 0 0 0 0 0 0 0 0 0 0 30 33 32 36 19 0 0 0 7 0 0 5 0 61 204 119 143 196 149
0 0 0 0 0 0 0 0 0 4 0 0 0 3 2 0 1 0 0 0 0 0 0 0 0 0 15 24 48 77 17 3 0 0 0 9 33 103 205 243 209 72 29 0
0 0 0 0 0 0 0 0 4 1 0 0 1 35 85 2 0 0 0 0 0 0 0 0 0 0 0 0 0 23 49 26 0 0 0 0 0 3 55 258 155 36 80 83
0 0 0 0 0 0 0 0 0 0 3 5 12 73 72 49 25 0 0 0 0 0 0 0 0 0 0 0 0 17 10 2 0 0 0 0 0 0 0 52 183 138 188 131
0 0 0 0 0 0 21 12 6 0 0 25 80 76 87 125 54 61 59 49 0 0 0 0 0 0 0 0 0 7 3 0 0 0 0 0 0 0 0 54 272 230 219 193
0 0 45 11 8 19 9 2 6 0 0 4 5 41 99 161 207 142 221 86 18 24 0 0 0 0 0 11 7 106 70 31 11 0 0 0 14 163 30 171 362 346 149 93
0 0 0 5 9 3 16 59 48 25 19 23 16 4 54 41 149 169 152 304 204 25 29 56 95 25 257 220 242 117 60 16 1 0 4 211 465 457 98 135 299 272 196 134
0 0 0 0 0 0 0 55 130 91 69 107 91 68 82 88 325 185 41 122 145 149 121 160 138 915 706 295 217 80 5 217 266 367 263 151 222 248 95 47 60 41 111 240
0 0 0 0 0 0 0 0 67 119 211 101 427 345 307 327 429 305 77 93 80 119 75 128 511 1042 747 590 246 146 171 262 238 154 210 189 246 107 74 126 97 181 186 273
0 0 0 0 0 0 7 26 129 33 116 147 311 428 507 452 349 349 144 137 128 54 112 188 574 670 843 571 446 189 167 186 114 114 107 81 73 66 30 20 10 15 50 113
0 0 0 0 28 58 15 9 59 28 13 190 198 218 190 159 153 177 138 125 105 85 151 527 608 688 819 610 475 259 129 38 0 0 0 0 0 0 0 4 7 46 162 253
0 0 0 0 0 19 28 0 20 0 0 93 171 31 58 14 98 106 96 89 101 123 254 685 510 505 590 863 634 318 134 6 0 0 0 0 0 0 3 1 5 4 9 54
0 0 0 0 0 0 0 1 0 0 29 95 70 0 0 67 97 67 163 122 88 121 41 53 376 430 633 563 218 174 86 18 1 0 0 0 0 15 0 0 0 0 0 0
CIN
-0 -0 -0 -0 -0 -0 -0 -0 -0 -0 -0 -0 -0 -0 -0 -0 -0 -0 -0 -0 -0 -0 -0 -0 -0 -0 -0 -0 -0 -0 -55 -22 -71 -43 -15 -27 -266 -64 -41 -23 -26 -17 -5 -10
-0 -0 -0 -0 -0 -0 -0 -0 -0 -0 -0 -0 -0 -0 -0 -0 -0 -0 -0 -0 -0 -0 -0 -0 -0 -0 -0 -12 -13 -9 -11 -13 -106 -11 -114 -25 -43 -28 -59 -55 -31 -6 -7 -13
-0 -0 -0 -0 -0 -0 -0 -0 -0 -0 -0 -0 -0 -0 -0 -0 -0 -0 -0 -0 -0 -0 -0 -0 -0 -0 -0 -4 -2 -40 -10 -0 -3 -56 -235 -133 -0 -0 -0 -0 -18 -52 -4 -0
-0 -0 -0 -0 -0 -0 -0 -0 -0 -0 -0 -0 -0 -0 -0 -0 -0 -0 -0 -0 -0 -0 -0 -0 -0 -0 -0 -0 -0 -0 -17 -3 -1 -0 -52 -61 -2 -0 -0 -0 -0 -0 -0 -15
-0 -0 -0 -0 -0 -0 -0 -0 -0 -0 -0 -0 -0 -0 -0 -0 -0 -0 -0 -0 -0 -0 -0 -0 -0 -0 -0 -0 -0 -0 -0 -0 -0 -0 -0 -3 -32 -1 -0 -0 -0 -0 -0 -73
-0 -0 -0 -0 -0 -0 -0 -0 -0 -0 -0 -3 -0 -0 -0 -0 -0 -0 -0 -0 -0 -0 -0 -0 -0 -0 -0 -0 -0 -0 -0 -0 -0 -0 -0 -12 -2 -0 -0 -0 -15 -0 -0 -112
-0 -0 -0 -0 -0 -0 -0 -0 -0 -0 -0 -0 -0 -0 -0 -0 -0 -0 -0 -0 -13 -10 -0 -0 -0 -0 -0 -0 -0 -0 -0 -0 -0 -0 -0 -0 -0 -0 -0 -0 -1 -0 -0 -0
-0 -0 -0 -0 -0 -0 -0 -0 -0 -0 -0 -0 -0 -0 -0 -0 -0 -0 -0 -0 -0 -0 -0 -0 -0 -0 -0 -0 -0 -0 -0 -0 -0 -0 -0 -0 -0 -0 -0 -0 -0 -0 -0 -0
-0 -0 -0 -0 -0 -0 -0 -0 -0 -2 -0 -0 -0 -0 -0 -0 -0 -0 -0 -0 -0 -0 -0 -0 -0 -0 -0 -0 -0 -0 -0 -0 -0 -0 -2 -1 -0 -0 -0 -0 -77 -142 -187 -239
-0 -0 -0 -0 -0 -0 -0 -0 -0 -0 -0 -0 -0 -0 -0 -0 -0 -0 -0 -0 -0 -0 -0 -0 -0 -0 -0 -0 -0 -0 -0 -0 -0 -0 -0 -0 -39 -0 -0 -0 -44 -134 -246 -315
-0 -0 -0 -0 -0 -0 -0 -0 -0 -0 -0 -0 -0 -0 -0 -0 -0 -0 -0 -0 -0 -0 -0 -0 -0 -0 -0 -0 -0 -0 -0 -0 -0 -0 -0 -22 -143 -181 -111 -162 -0 -127 -226 -292
-0 -0 -0 -0 -0 -0 -0 -0 -0 -0 -0 -0 -0 -0 -0 -0 -0 -0 -0 -0 -2 -66 -8 -0 -0 -25 -46 -41 -15 -59 -48 -50 -0 -0 -6 -129 -49 -105 -95 -62 -62 -124 -149 -200
-0 -0 -0 -0 -0 -0 -0 -0 -0 -0 -0 -0 -0 -0 -0 -0 -0 -0 -0 -0 -0 -0 -0 -0 -26 -64 -46 -33 -26 -5 -124 -131 -132 -102 -162 -115 -131 -0 -104 -13 -19 -76 -98 -110
-0 -0 -0 -0 -0 -0 -0 -0 -0 -0 -0 -0 -0 -0 -0 -0 -0 -0 -0 -0 -0 -0 -0 -0 -42 -39 -32 -19 -15 -7 -22 -96 -60 -93 -44 -31 -50 -58 -60 -83 -32 -38 -51 -47
-0 -0 -0 -0 -0 -0 -0 -0 -0 -0 -0 -0 -0 -0 -0 -0 -0 -0 -0 -0 -0 -0 -0 -0 -0 -26 -22 -33 -15 -36 -0 -0 -1 -7 -5 -0 -41 -0 -43 -57 -67 -43 -60 -126
-0 -0 -0 -0 -0 -0 -0 -0 -1 -23 -0 -0 -0 -33 -54 -0 -28 -0 -0 -0 -0 -0 -0 -0 -0 -0 -13 -13 -22 -11 -48 -103 -0 -0 -0 -63 -30 -58 -95 -119 -68 -38 -49 -0
-0 -0 -0 -0 -0 -0 -0 -0 -0 -2 -0 -0 -0 -49 -44 -42 -0 -0 -0 -0 -0 -0 -0 -0 -0 -0 -0 -0 -0 -10 -18 -34 -10 -0 -0 -0 -0 -35 -53 -114 -160 -27 -97 -172
-0 -0 -0 -0 -0 -0 -0 -0 -0 -0 -0 -0 -138 -31 -19 -21 -50 -0 -0 -0 -0 -0 -0 -0 -0 -0 -0 -0 -0 -178 -131 -90 -0 -0 -0 -0 -0 -0 -0 -60 -67 -130 -98 -137
-0 -0 -0 -0 -0 -0 -2 -0 -0 -0 -0 -45 -25 -5 -10 -38 -45 -11 -36 -36 -0 -0 -0 -0 -0 -0 -0 -0 -0 -91 -74 -0 -0 -0 -0 -0 -0 -0 -0 -46 -40 -31 -40 -26
-0 -0 -0 -0 -0 -0 -0 -1 -0 -0 -0 -3 -6 -11 -16 -51 -40 -22 -31 -50 -38 -24 -1 -0 -0 -0 -0 -11 -19 -86 -44 -42 -61 -0 -0 -0 -2 -57 -92 -174 -70 -85 -125 -42
-0 -0 -0 -1 -0 -0 -0 -0 -0 -0 -10 -64 -174 -239 -8 -11 -15 -38 -77 -24 -49 -14 -11 -39 -31 -34 -37 -64 -71 -47 -44 -31 -7 -0 -6 -96 -78 -140 -272 -71 -32 -21 -33 -162
-0 -0 -0 -0 -0 -0 -0 -1 -6 -4 -5 -31 -10 -99 -6 -37 -56 -53 -65 -57 -83 -16 -109 -14 -14 -30 -75 -61 -52 -70 -27 -34 -75 -83 -122 -113 -153 -207 -100 -14 -11 -38 -165 -187
-0 -0 -0 -0 -0 -0 -0 -0 -4 -4 -23 -44 -32 -20 -25 -25 -24 -41 -72 -31 -53 -68 -50 -4 -56 -45 -65 -87 -104 -99 -47 -69 -85 -85 -100 -85 -102 -136 -47 -144 -154 -96 -69 -126
-0 -0 -0 -0 -0 -0 -0 -6 -2 -6 -27 -48 -37 -33 -21 -35 -14 -29 -7 -23 -3 -1 -5 -14 -61 -46 -51 -75 -112 -160 -119 -80 -94 -97 -78 -94 -9 -8 -137 -113 -57 -64 -40 -21
-0 -0 -0 -0 -8 -13 -5 -5 -16 -15 -0 -23 -32 -29 -43 -47 -12 -20 -16 -17 -6 -4 -24 -33 -50 -39 -49 -61 -74 -94 -93 -101 -0 -0 -0 -0 -0 -0 -0 -229 -233 -167 -94 -69
-0 -0 -0 -0 -0 -1 -10 -0 -5 -0 -0 -20 -33 -54 -16 -4 -18 -13 -8 -3 -10 -31 -54 -30 -49 -39 -26 -20 -27 -44 -67 -49 -0 -0 -0 -0 -0 -0 -143 -154 -248 -73 -50 -82
-0 -0 -0 -0 -0 -0 -0 -0 -0 -0 -15 -4 -7 -0 -0 -24 -13 -3 -43 -22 -18 -31 -7 -18 -88 -42 -27 -22 -28 -39 -41 -58 -12 -0 -0 -0 -0 -131 -0 -0 -0 -0 -0 -0
Wind_Speed
nan nan nan nan nan nan nan nan nan nan nan nan nan nan nan nan nan nan nan nan nan nan nan nan nan nan nan nan nan nan nan nan nan 26 nan nan nan nan nan nan nan nan nan nan
nan nan nan nan nan nan nan nan nan nan nan nan nan nan nan nan nan nan nan nan nan nan nan nan nan nan nan nan nan nan nan nan 30 nan nan nan nan nan nan nan nan nan nan nan
nan nan nan nan nan nan nan nan nan nan nan nan nan nan nan nan nan nan nan nan nan nan nan nan nan nan nan nan nan nan nan nan nan nan 32 nan nan nan nan nan nan nan nan nan
nan nan nan nan nan nan nan nan nan nan nan nan nan nan nan nan nan nan nan nan nan nan nan nan nan nan nan nan nan nan nan nan nan nan nan nan nan nan nan nan nan nan nan nan
nan nan nan nan nan nan nan nan nan nan nan nan nan nan nan nan nan nan nan nan nan nan nan nan nan nan nan nan nan nan nan nan nan nan nan nan nan nan nan nan nan nan nan nan
nan nan nan nan nan nan nan nan nan nan nan nan nan nan nan nan nan nan nan nan nan nan nan nan nan nan nan nan nan nan nan nan nan nan nan nan nan nan nan nan nan nan nan nan
nan nan nan nan nan nan nan nan nan nan nan nan nan nan nan nan nan nan nan nan nan nan nan nan nan nan nan nan nan nan nan nan nan nan nan nan nan nan nan nan nan nan nan nan
nan nan nan nan nan nan nan nan nan nan nan nan nan nan nan nan nan nan nan nan nan nan nan nan nan nan nan nan nan nan nan nan nan nan nan nan nan nan nan nan nan nan nan nan
nan nan nan nan nan nan nan nan nan nan nan nan nan nan nan nan nan nan nan nan nan nan nan nan nan nan nan nan nan nan nan nan nan nan nan nan nan nan nan nan nan nan 57 59
nan nan nan nan nan nan nan nan nan nan nan nan nan nan nan nan nan nan nan nan nan nan nan nan nan nan nan nan nan nan nan nan nan nan nan nan nan nan nan nan nan 54 61 54
nan nan nan nan nan nan nan nan nan nan nan nan nan nan nan nan nan nan nan nan nan nan nan nan nan nan nan nan nan nan nan nan nan nan nan nan nan nan 51 42 nan 64 66 69
nan nan nan nan nan nan nan nan nan nan nan nan nan nan nan nan nan nan nan nan nan nan nan nan nan nan nan nan nan nan 30 nan nan nan nan nan nan nan nan nan nan 65 71 69
nan nan nan nan nan nan nan nan nan nan nan nan nan nan nan nan nan nan nan nan nan nan nan nan nan 29 37 35 nan nan nan nan nan nan nan nan nan nan nan nan nan 65 69 68
nan nan nan nan nan nan nan nan nan nan nan nan nan nan nan nan nan nan nan nan nan nan nan nan nan nan nan nan nan nan nan nan nan nan nan nan nan nan nan nan 59 66 67 72
nan nan nan nan nan nan nan nan nan nan nan nan nan nan nan nan nan nan nan nan nan nan nan nan nan nan nan nan nan nan nan nan nan nan nan nan nan nan nan 57 56 58 58 60
nan nan nan nan nan nan nan nan nan nan nan nan nan nan nan nan nan nan nan nan nan nan nan nan nan nan nan nan nan nan nan nan nan nan nan nan nan 51 53 56 56 nan nan nan
nan nan nan nan nan nan nan nan nan nan nan nan nan nan nan nan nan nan nan nan nan nan nan nan nan nan nan nan nan nan nan nan nan nan nan nan nan nan nan 44 44 nan nan nan
nan nan nan nan nan nan nan nan nan nan nan nan nan nan nan nan nan nan nan nan nan nan nan nan nan nan nan nan nan nan nan nan nan nan nan nan nan nan nan nan 47 49 50 45
nan nan nan nan nan nan nan nan nan nan nan nan nan nan nan 26 nan nan nan nan nan nan nan nan nan nan nan nan nan nan nan nan nan nan nan nan nan nan nan nan 47 50 48 46
nan nan nan nan nan nan nan nan nan nan nan nan nan nan nan 25 25 20 17 nan nan nan nan nan nan nan nan nan nan 28 nan nan nan nan nan nan nan 39 nan 44 49 54 52 nan
nan nan nan nan nan nan nan nan nan nan nan nan nan nan nan nan 21 20 25 21 22 nan nan nan nan nan 25 33 32 27 nan nan nan nan nan 43 37 40 nan 38 42 42 44 44
nan nan nan nan nan nan nan nan 5 nan nan 5 nan nan nan nan 18 23 nan 22 23 20 21 23 24 20 27 32 27 nan nan 35 37 38 37 34 34 33 nan nan nan nan 38 33
nan nan nan nan nan nan nan nan nan 8 13 14 16 19 20 19 25 21 nan nan nan 21 nan 19 20 21 26 26 25 27 31 33 30 32 30 25 28 27 nan 30 nan 28 29 33
nan nan nan nan nan nan nan nan 17 nan 10 15 15 17 19 21 20 24 22 18 13 nan 13 17 15 21 27 32 30 31 31 30 30 30 26 nan nan nan nan nan nan nan nan 25
nan nan nan nan nan nan nan nan nan nan nan 15 18 19 17 18 18 17 18 19 20 nan 24 20 20 24 26 27 28 27 27 nan nan nan nan nan nan nan nan nan nan nan 25 25
nan nan nan nan nan nan nan nan nan nan nan nan 22 nan nan nan nan 13 nan nan 22 21 19 19 19 24 25 25 24 24 23 nan nan nan nan nan nan nan nan nan nan nan nan nan
nan nan nan nan nan nan nan nan nan nan nan nan nan nan nan nan nan nan 25 26 nan 18 nan nan 16 21 19 16 18 18 nan nan nan nan nan nan nan nan nan nan nan nan nan nan
Wind_Direction
nan nan nan nan nan nan nan nan nan nan nan nan nan nan nan nan nan nan nan nan nan nan nan nan nan nan nan nan nan nan nan nan nan 254 nan nan nan nan nan nan nan nan nan nan
nan nan nan nan nan nan nan nan nan nan nan nan nan nan nan nan nan nan nan nan nan nan nan nan nan nan nan nan nan nan nan nan 241 nan nan nan nan nan nan nan nan nan nan nan
nan nan nan nan nan nan nan nan nan nan nan nan nan nan nan nan nan nan nan nan nan nan nan nan nan nan nan nan nan nan nan nan nan nan 275 nan nan nan nan nan nan nan nan nan
nan nan nan nan nan nan nan nan nan nan nan nan nan nan nan nan nan nan nan nan nan nan nan nan nan nan nan nan nan nan nan nan nan nan nan nan nan nan nan nan nan nan nan nan
nan nan nan nan nan nan nan nan nan nan nan nan nan nan nan nan nan nan nan nan nan nan nan nan nan nan nan nan nan nan nan nan nan nan nan nan nan nan nan nan nan nan nan nan
nan nan nan nan nan nan nan nan nan nan nan nan nan nan nan nan nan nan nan nan nan nan nan nan nan nan nan nan nan nan nan nan nan nan nan nan nan nan nan nan nan nan nan nan
nan nan nan nan nan nan nan nan nan nan nan nan nan nan nan nan nan nan nan nan nan nan nan nan nan nan nan nan nan nan nan nan nan nan nan nan nan nan nan nan nan nan nan nan
nan nan nan nan nan nan nan nan nan nan nan nan nan nan nan nan nan nan nan nan nan nan nan nan nan nan nan nan nan nan nan nan nan nan nan nan nan nan nan nan nan nan nan nan
nan nan nan nan nan nan nan nan nan nan nan nan nan nan nan nan nan nan nan nan nan nan nan nan nan nan nan nan nan nan nan nan nan nan nan nan nan nan nan nan nan nan 243 244
nan nan nan nan nan nan nan nan nan nan nan nan nan nan nan nan nan nan nan nan nan nan nan nan nan nan nan nan nan nan nan nan nan nan nan nan nan nan nan nan nan 243 251 251
nan nan nan nan nan nan nan nan nan nan nan nan nan nan nan nan nan nan nan nan nan nan nan nan nan nan nan nan nan nan nan nan nan nan nan nan nan nan 238 234 nan 248 253 256
nan nan nan nan nan nan nan nan nan nan nan nan nan nan nan nan nan nan nan nan nan nan nan nan nan nan nan nan nan nan 226 nan nan nan nan nan nan nan nan nan nan 256 262 265
nan nan nan nan nan nan nan nan nan nan nan nan nan nan nan nan nan nan nan nan nan nan nan nan nan 203 187 188 nan nan nan nan nan nan nan nan nan nan nan nan nan 264 274 274
nan nan nan nan nan nan nan nan nan nan nan nan nan nan nan nan nan nan nan nan nan nan nan nan nan nan nan nan nan nan nan nan nan nan nan nan nan nan nan nan 251 253 261 270
nan nan nan nan nan nan nan nan nan nan nan nan nan nan nan nan nan nan nan nan nan nan nan nan nan nan nan nan nan nan nan nan nan nan nan nan nan nan nan 270 278 279 266 267
nan nan nan nan nan nan nan nan nan nan nan nan nan nan nan nan nan nan nan nan nan nan nan nan nan nan nan nan nan nan nan nan nan nan nan nan nan 262 266 273 277 nan nan nan
nan nan nan nan nan nan nan nan nan nan nan nan nan nan nan nan nan nan nan nan nan nan nan nan nan nan nan nan nan nan nan nan nan nan nan nan nan nan nan 283 286 nan nan nan
nan nan nan nan nan nan nan nan nan nan nan nan nan nan nan nan nan nan nan nan nan nan nan nan nan nan nan nan nan nan nan nan nan nan nan nan nan nan nan nan 279 285 291 291
nan nan nan nan nan nan nan nan nan nan nan nan nan nan nan 194 nan nan nan nan nan nan nan nan nan nan nan nan nan nan nan nan nan nan nan nan nan nan nan nan 285 289 291 289
nan nan nan nan nan nan nan nan nan nan nan nan nan nan nan 185 186 187 208 nan nan nan nan nan nan nan nan nan nan 249 nan nan nan nan nan nan nan 253 nan 263 267 275 275 nan
nan nan nan nan nan nan nan nan nan nan nan nan nan nan nan nan 193 196 205 203 210 nan nan nan nan nan 225 246 248 247 nan nan nan nan nan 257 264 273 nan 269 270 276 281 283
nan nan nan nan nan nan nan nan 210 nan nan 209 nan nan nan nan 202 198 nan 214 206 217 218 235 239 241 242 254 251 nan nan 248 246 253 261 262 257 267 nan nan nan nan 278 281
nan nan nan nan nan nan nan nan nan 185 185 186 185 195 196 196 191 200 nan nan nan 213 nan 237 239 245 237 242 255 242 247 257 256 256 258 257 261 259 nan 274 nan 288 285 291
nan nan nan nan nan nan nan nan 185 nan 166 191 197 201 201 192 208 214 222 225 212 nan 213 234 240 253 242 243 243 246 248 251 255 257 260 nan nan nan nan nan nan nan nan 279
nan nan nan nan nan nan nan nan nan nan nan 197 210 211 212 197 207 212 210 212 217 nan 242 246 262 254 246 245 246 247 248 nan nan nan nan nan nan nan nan nan nan nan 275 278
nan nan nan nan nan nan nan nan nan nan nan nan 223 nan nan nan nan 206 nan nan 221 222 239 239 252 252 241 245 246 246 247 nan nan nan nan nan nan nan nan nan nan nan nan nan
nan nan nan nan nan nan nan nan nan nan nan nan nan nan nan nan nan nan 215 220 nan 235 nan nan 278 248 244 239 248 253 nan nan nan nan nan nan nan nan nan nan nan nan nan nan